Terug naar catalogus

FENGYUN 1C DEB

ActiefSSO
NORAD 29781·DEBRIS·🇨🇳 China

Gelanceerd May 10, 1999 vanaf Taiyuan Satellite Launch Center

Loading…

Volgende Passages (komende 24 uur)

TLE

VersSource: Space-Track

Epoch: Sep 14, 2026, 22:29 UTC

1 29781U 99025BX  26257.93682832  .00000541  00000-0  34934-3 0  9991
2 29781  98.8265 249.6494 0072622 118.4031 271.4905 14.05742103  5215

Volg FENGYUN 1C DEB in realtime met AllMySat

Download on the App Store